Location: Solon
(41.3849°N, 81.4081°W)
Time: 14:37:54
(UTC-04:00)

CZ-2C R/B - Visible Passes

Search period start: 28 June 2016 00:00
Search period end: 08 July 2016 00:00
Orbit: 704 x 908 km, 98.2° (Epoch: 28 June)

Date Brightness Start Highest point End Pass type
(mag) Time Alt. Az. Time Alt. Az. Time Alt. Az.
28 Jun 4.1 01:21:36 33° ESE 01:23:20 42° ENE 01:28:37 10° N visible
28 Jun 4.3 03:02:40 28° WSW 03:03:15 28° W 03:08:05 10° NW visible
29 Jun 4.8 00:56:36 21° E 00:58:48 27° ENE 01:03:26 10° N visible
29 Jun 3.7 02:37:41 43° WSW 02:38:23 45° W 02:43:47 10° NNW visible
30 Jun 5.3 00:31:37 13° E 00:34:21 17° ENE 00:37:52 10° NNE visible
30 Jun 3.2 02:12:41 61° SSW 02:13:36 74° WSW 02:19:13 10° NNW visible
01 Jul 5.7 00:08:56 10° ENE 00:09:59 11° ENE 00:11:02 10° NE visible
01 Jul 3.4 01:47:42 54° SE 01:48:54 70° ENE 01:54:26 10° N visible
01 Jul 5.0 03:28:47 16° W 03:29:09 17° W 03:32:38 10° NW visible
02 Jul 4.1 01:22:43 35° ESE 01:24:17 43° ENE 01:29:29 10° N visible
02 Jul 4.4 03:03:48 27° WSW 03:04:12 27° W 03:08:53 10° NW visible
03 Jul 4.7 00:57:44 22° E 00:59:43 27° ENE 01:04:18 10° N visible
03 Jul 3.7 02:38:49 42° WSW 02:39:20 43° W 02:44:37 10° NNW visible
04 Jul 5.3 00:32:46 13° E 00:35:15 17° ENE 00:38:45 10° NNE visible
04 Jul 3.2 02:13:50 63° SSW 02:14:33 71° WSW 02:20:04 10° NNW visible
05 Jul 5.7 00:09:46 10° ENE 00:10:53 11° ENE 00:11:58 10° NE visible
05 Jul 3.3 01:48:51 59° SE 01:49:50 72° ENE 01:55:17 10° N visible
05 Jul 5.0 03:29:56 16° W 03:30:06 16° W 03:33:19 10° NW visible
06 Jul 4.0 01:23:53 38° ESE 01:25:11 44° ENE 01:30:20 10° N visible
06 Jul 4.4 03:04:57 26° W 03:05:08 26° W 03:09:40 10° NW visible
07 Jul 4.7 00:58:54 24° E 01:00:37 28° ENE 01:05:09 10° N visible
07 Jul 3.7 02:39:59 41° WSW 02:40:16 41° W 02:45:25 10° NNW visible
